STARLINK-1344 (45559 NORAD) Tracking and Keplerian Element Data

This shows tracking and keplerian element data for the satellite.

Feedback or suggestion? Click here.




ElementValue
Catalog45559
NameSTARLINK-1344
Epoch Orbit1267
Epoch Day190.16667824
Epoch Year2020
RAAN24.4283
Inclination52.9992
Eccentricity0.0001316
Argument of Perigee72.4406
Mean Anonmoly71.8944
Mean Motion15.51931738
Decay Rate-0.01190039
L11 45559U 20025AE 20190.16667824 -.01190039 00000-0 -21357-1 0 9993
L22 45559 52.9992 24.4283 0001316 72.4406 71.8944 15.51931738 12675

Live tracking and technical data element details for STARLINK-1344 (NORAD 45559). STARLINK-1344 can be tracked NOW for your location showing map with azimuth and elevation plus other details from your city location.

Track the satellite on the map from your city or location and see movement details for azimuth, elevation, latitude, longitude, range, height, and movement on the map or in text.







IsCatalogInMostPopularTable: catalog: 45559, numindb: 17
Update: records affected: 1



GetName: 45559 STARLINK-1344

Hit Count: updated at: Fri, 10 Jul 2020 03:45:55 GMT